EW8215 Weather Reports


time (UTC)temp
C
wind
direction
speed
KPH
gust
KPH
rain 1hr
cm
rain 24hr
cm
rain mn
cm
humidity
%
barometer
mb
20260506211526 17 118 11.3 14.5 0.00 0.03 0.03 81 1013.4
20260506211024 17 74 11.3 14.5 0.00 0.03 0.03 82 1013.5
20260506210520 16 352 9.7 14.5 0.00 0.03 0.03 81 1013.4
20260506210017 16 345 9.7 14.5 0.00 0.03 0.03 81 1013.5
20260506205514 17 22 19.3 24.1 0.00 0.03 0.03 80 1013.6
20260506205009 17 17 17.7 24.1 0.00 0.03 0.03 80 1013.6
20260506204508 17 356 17.7 19.3 0.00 0.03 0.03 80 1013.5
20260506204004 17 326 12.9 19.3 0.00 0.03 0.03 81 1013.5
20260506203502 17 322 19.3 22.5 0.00 0.03 0.03 79 1013.5
20260506202958 17 337 22.5 33.8 0.00 0.03 0.03 79 1013.6
20260506202456 17 331 22.5 33.8 0.00 0.03 0.03 79 1013.5
20260506201952 17 28 9.7 14.5 0.00 0.03 0.03 79 1013.3
20260506201449 17 352 16.1 24.1 0.00 0.03 0.03 78 1013.2
20260506200941 17 350 17.7 19.3 0.00 0.03 0.03 78 1013.2
20260506200437 17 1 17.7 24.1 0.00 0.03 0.03 79 1013.0
20260506195933 17 310 14.5 16.1 0.00 0.03 0.03 79 1013.4
20260506195431 18 325 22.5 33.8 0.00 0.03 0.03 79 1013.6
20260506194927 18 330 20.9 24.1 0.00 0.03 0.03 78 1013.3
20260506194424 18 319 14.5 24.1 0.00 0.03 0.03 79 1013.2
20260506193921 18 351 20.9 30.6 0.00 0.03 0.03 78 1013.1
20260506193418 18 346 19.3 22.5 0.00 0.03 0.03 79 1013.0
20260506192914 19 338 20.9 27.4 0.00 0.03 0.03 78 1013.0
20260506192411 18 28 20.9 24.1 0.00 0.03 0.03 79 1012.7
20260506191908 19 358 19.3 24.1 0.00 0.03 0.03 79 1013.2
20260506191404 19 343 22.5 27.4 0.00 0.03 0.03 78 1012.9
20260506190901 20 320 17.7 24.1 0.00 0.03 0.03 80 1012.9
20260506190357 20 15 6.4 8.0 0.00 0.03 0.03 79 1012.8
20260506185854 20 317 12.9 16.1 0.00 0.03 0.03 80 1012.9
20260506185352 20 117 9.7 14.5 0.00 0.03 0.03 79 1013.1
20260506184848 20 349 20.9 22.5 0.00 0.03 0.03 78 1013.1
20260506184345 20 354 17.7 22.5 0.00 0.03 0.03 76 1012.9
20260506183843 20 23 9.7 14.5 0.00 0.03 0.03 78 1012.9
20260506183338 20 345 8.0 11.3 0.00 0.03 0.03 79 1012.9
20260506182836 20 16 8.0 11.3 0.00 0.03 0.03 78 1012.9
20260506182333 20 314 16.1 22.5 0.00 0.03 0.03 78 1012.7
20260506181830 20 234 4.8 4.8 0.00 0.03 0.03 78 1012.7
20260506181328 20 18 9.7 11.3 0.00 0.03 0.03 78 1012.7
20260506180825 20 171 9.7 11.3 0.00 0.03 0.03 80 1012.6
20260506180321 20 168 1.6 3.2 0.00 0.03 0.03 78 1012.6
20260506175817 20 119 3.2 3.2 0.00 0.03 0.03 80 1012.5
20260506175314 20 125 0.0 0.0 0.00 0.03 0.03 79 1012.4
20260506174812 20 79 9.7 14.5 0.00 0.03 0.03 80 1012.4
20260506174309 19 113 0.0 0.0 0.00 0.03 0.03 81 1012.6
20260506173806 19 16 6.4 8.0 0.00 0.03 0.03 81 1012.4
20260506173303 19 137 0.0 0.0 0.00 0.03 0.03 79 1012.6
20260506172800 19 132 8.0 14.5 0.00 0.03 0.03 81 1012.6
20260506172256 19 124 3.2 4.8 0.00 0.03 0.03 82 1012.6
20260506171754 18 49 9.7 16.1 0.00 0.03 0.03 81 1012.4
20260506171251 18 141 1.6 3.2 0.00 0.03 0.03 84 1012.7
20260506170749 17 132 6.4 8.0 0.00 0.03 0.03 84 1012.6
20260506170245 17 82 6.4 11.3 0.00 0.03 0.03 86 1012.6
20260506165743 17 81 3.2 4.8 0.00 0.03 0.03 86 1012.5
20260506165240 16 47 3.2 4.8 0.00 0.03 0.03 89 1012.3
20260506164737 16 111 0.0 3.2 0.00 0.03 0.03 92 1013.0
20260506164234 15 108 3.2 4.8 0.00 0.03 0.03 94 1012.1
20260506163731 14 110 3.2 3.2 0.00 0.03 0.03 95 1012.5
20260506163225 14 95 12.9 16.1 0.00 0.03 0.03 94 1013.0
20260506162722 14 105 3.2 4.8 0.00 0.03 0.03 95 1014.5
20260506162220 14 322 6.4 11.3 0.00 0.03 0.03 95 1014.5
20260506161717 14 0 11.3 14.5 0.00 0.03 0.03 95 1014.7
20260506161214 15 0 12.9 14.5 0.00 0.03 0.03 95 1015.0
20260506160712 15 357 19.3 33.8 0.00 0.03 0.03 95 1014.9
20260506160208 15 308 12.9 16.1 0.00 0.03 0.03 95 1015.5
20260506155706 15 23 20.9 24.1 0.00 0.03 0.03 95 1015.3
20260506155203 15 347 19.3 22.5 0.00 0.03 0.03 95 1014.7
20260506153305 16 352 14.5 19.3 0.18 0.03 0.03 95 1014.3
20260506152802 16 82 17.7 22.5 0.18 0.03 0.03 95 1014.0
20260506152259 16 355 16.1 22.5 0.00 0.00 0.00 94 1013.8
20260506151758 16 353 6.4 11.3 0.00 0.00 0.00 93 1013.6
20260506151254 16 344 4.8 11.3 0.00 0.00 0.00 93 1013.5
20260506150751 16 41 6.4 11.3 0.00 0.00 0.00 92 1013.1
20260506150248 16 319 16.1 22.5 0.00 0.00 0.00 92 1012.9
20260506145745 16 72 9.7 14.5 0.00 0.00 0.00 93 1012.6
20260506145241 17 113 3.2 4.8 0.00 0.00 0.00 93 1012.6
20260506144739 17 84 4.8 8.0 0.00 0.00 0.00 93 1012.7
20260506144236 17 94 8.0 11.3 0.00 0.00 0.00 93 1012.9
20260506143733 17 291 19.3 24.1 0.00 0.00 0.00 93 1012.3
20260506143231 17 20 12.9 16.1 0.00 0.00 0.00 93 1012.4
20260506142729 18 354 12.9 16.1 0.00 0.00 0.00 92 1011.9
20260506142227 18 3 14.5 16.1 0.00 0.00 0.00 92 1011.9
20260506141725 18 11 22.5 30.6 0.00 0.00 0.00 92 1011.8
20260506141223 18 80 4.8 8.0 0.00 0.00 0.00 92 1011.7
20260506140720 18 93 12.9 19.3 0.00 0.00 0.00 92 1011.8
20260506140217 19 330 16.1 22.5 0.00 0.00 0.00 92 1011.5
20260506135713 20 333 14.5 27.4 0.00 0.00 0.00 91 1011.3
20260506135210 20 346 9.7 14.5 0.00 0.00 0.00 90 1011.2
20260506134707 22 20 16.1 19.3 0.00 0.00 0.00 88 1011.0
20260506134203 25 141 1.6 3.2 0.00 0.00 0.00 90 1011.1
20260506133700 25 135 3.2 3.2 0.00 0.00 0.00 90 1010.9
20260506133157 24 146 3.2 3.2 0.00 0.00 0.00 91 1010.5
20260506132654 24 120 6.4 8.0 0.00 0.00 0.00 91 1010.5
20260506132151 24 131 9.7 11.3 0.00 0.00 0.00 91 1010.3
20260506131649 24 138 4.8 4.8 0.00 0.00 0.00 92 1010.3
20260506131145 24 160 4.8 4.8 0.00 0.00 0.00 92 1010.2
20260506130641 23 168 6.4 8.0 0.00 0.00 0.00 92 1010.3
20260506130139 23 133 8.0 8.0 0.00 0.00 0.00 93 1010.2
20260506125637 23 120 8.0 11.3 0.00 0.00 0.00 94 1009.9
20260506125134 23 144 3.2 4.8 0.00 0.00 0.00 95 1010.1
20260506124632 23 150 3.2 3.2 0.00 0.00 0.00 95 1010.0
20260506124130 23 138 3.2 3.2 0.00 0.00 0.00 95 1010.0
20260506123627 22 155 1.6 3.2 0.00 0.00 0.00 96 1010.1
20260506123126 22 152 0.0 0.0 0.00 0.00 0.00 96 1010.0
20260506122622 22 149 0.0 0.0 0.00 0.00 0.00 96 1010.0
20260506122120 22 148 0.0 0.0 0.00 0.00 0.00 96 1010.0
20260506121617 22 149 0.0 0.0 0.00 0.00 0.00 95 1009.9
20260506121114 22 149 0.0 0.0 0.00 0.00 0.00 95 1010.0
20260506120612 22 149 0.0 0.0 0.00 0.00 0.00 95 1009.9
20260506120109 22 149 0.0 0.0 0.00 0.00 0.00 95 1009.8
20260506115607 22 149 0.0 0.0 0.00 0.00 0.00 94 1009.8
20260506115105 23 149 0.0 0.0 0.00 0.00 0.00 94 1009.9
20260506114602 23 156 0.0 0.0 0.00 0.00 0.00 94 1009.8
20260506114100 23 156 0.0 0.0 0.00 0.00 0.00 94 1010.0
20260506113558 23 156 0.0 0.0 0.00 0.00 0.00 94 1010.0
20260506113055 23 156 0.0 0.0 0.00 0.00 0.00 94 1010.0
20260506112551 23 145 0.0 0.0 0.00 0.00 0.00 93 1009.9
20260506112049 23 144 0.0 0.0 0.00 0.00 0.00 93 1009.8
20260506111547 23 145 0.0 0.0 0.00 0.00 0.00 93 1010.0
20260506111044 23 145 0.0 0.0 0.00 0.00 0.00 93 1009.8
20260506110541 23 144 0.0 0.0 0.00 0.00 0.00 93 1009.7
20260506110038 23 155 0.0 0.0 0.00 0.00 0.00 93 1009.8
20260506105534 23 155 0.0 0.0 0.00 0.00 0.00 93 1009.7
20260506105032 23 155 0.0 0.0 0.00 0.00 0.00 92 1009.7
20260506104530 23 155 0.0 0.0 0.00 0.00 0.00 92 1009.7
20260506104027 23 164 0.0 0.0 0.00 0.00 0.00 92 1009.5
20260506103524 23 166 0.0 3.2 0.00 0.00 0.00 92 1009.5
20260506103021 23 161 0.0 3.2 0.00 0.00 0.00 92 1009.3
20260506102520 23 158 0.0 0.0 0.00 0.00 0.00 92 1009.3
20260506102016 23 153 0.0 0.0 0.00 0.00 0.00 91 1009.4
20260506101513 23 163 3.2 4.8 0.00 0.00 0.00 91 1009.1
20260506101010 23 161 0.0 0.0 0.00 0.00 0.00 91 1009.2
20260506100508 23 155 0.0 0.0 0.00 0.00 0.00 91 1008.9
20260506100006 23 152 3.2 3.2 0.00 0.00 0.00 91 1008.9
20260506095505 23 148 6.4 8.0 0.00 0.00 0.00 91 1009.0
20260506095000 23 159 1.6 3.2 0.00 0.00 0.00 91 1008.9
20260506094459 23 184 9.7 14.5 0.00 0.00 0.00 91 1008.8
20260506093956 23 148 3.2 4.8 0.00 0.00 0.00 91 1008.7
20260506093454 23 156 0.0 3.2 0.00 0.00 0.00 91 1008.7
20260506092951 23 164 0.0 0.0 0.00 0.00 0.00 91 1008.8
20260506092449 23 160 0.0 0.0 0.00 0.00 0.00 91 1008.7
20260506091945 23 186 3.2 4.8 0.00 0.00 0.00 91 1008.7
20260506091444 23 160 3.2 4.8 0.00 0.00 0.00 91 1008.8
20260506090941 23 158 3.2 4.8 0.00 0.00 0.00 91 1008.7
20260506090439 23 182 9.7 16.1 0.00 0.00 0.00 91 1008.7
20260506085935 23 149 6.4 11.3 0.00 0.00 0.00 91 1008.6
20260506085432 23 172 9.7 11.3 0.00 0.00 0.00 91 1008.5
20260506084928 23 140 0.0 0.0 0.00 0.00 0.00 91 1008.7
20260506084425 23 162 6.4 8.0 0.00 0.00 0.00 91 1008.8
20260506083921 23 186 4.8 4.8 0.00 0.00 0.00 91 1008.7
20260506083419 23 163 3.2 4.8 0.00 0.00 0.00 91 1008.7
20260506082916 23 221 4.8 8.0 0.00 0.00 0.00 91 1008.7
20260506082413 23 177 1.6 3.2 0.00 0.00 0.00 91 1008.7
20260506081908 23 162 1.6 3.2 0.00 0.00 0.00 91 1008.8
20260506081407 23 173 4.8 4.8 0.00 0.00 0.00 90 1008.9
20260506080904 23 186 3.2 4.8 0.00 0.00 0.00 90 1008.8
20260506080400 23 169 3.2 4.8 0.00 0.00 0.00 90 1008.8
20260506073344 23 247 9.7 14.5 0.00 0.00 0.00 91 1009.0
20260506072841 23 169 4.8 4.8 0.00 0.00 0.00 91 1009.1
20260506072339 23 173 8.0 11.3 0.00 0.00 0.00 91 1009.0
20260506071837 23 161 3.2 4.8 0.00 0.00 0.00 91 1009.0
20260506071335 23 176 3.2 4.8 0.00 0.00 0.00 91 1009.0
20260506070831 23 155 3.2 3.2 0.00 0.00 0.00 91 1008.9
20260506070328 23 156 8.0 8.0 0.00 0.00 0.00 91 1009.0
20260506062306 23 157 1.6 3.2 0.00 0.00 0.00 92 1008.6
20260506061801 23 171 3.2 3.2 0.00 0.00 0.00 92 1008.7
20260506061258 23 176 6.4 8.0 0.00 0.00 0.00 92 1008.8
20260506060757 23 144 4.8 8.0 0.00 0.00 0.00 92 1008.5
20260506060254 23 163 4.8 8.0 0.00 0.00 0.00 92 1008.6
20260506051225 23 177 12.9 19.3 0.00 0.00 0.00 92 1008.6
20260506050724 23 160 6.4 8.0 0.00 0.00 0.00 92 1008.7
20260506050221 23 166 3.2 3.2 0.00 0.00 0.00 92 1008.6
20260506044712 23 193 1.6 3.2 0.00 0.00 0.00 91 1008.7
20260506044209 23 141 6.4 14.5 0.00 0.00 0.00 91 1008.8
20260506043707 23 149 6.4 8.0 0.00 0.00 0.00 91 1008.7
20260506043204 23 159 6.4 8.0 0.00 0.00 0.00 91 1008.9
20260506042703 23 182 6.4 8.0 0.00 0.00 0.00 91 1008.7
20260506042201 23 173 6.4 8.0 0.00 0.00 0.00 90 1008.7
20260506041659 23 162 3.2 4.8 0.00 0.00 0.00 90 1008.7
20260506041155 23 155 3.2 3.2 0.00 0.00 0.00 90 1008.7
20260506040653 24 144 4.8 8.0 0.00 0.00 0.00 90 1008.6
20260506040150 24 168 4.8 8.0 0.00 0.00 0.00 90 1008.6
20260506035647 24 150 9.7 11.3 0.00 0.00 0.00 89 1008.4
20260506035143 24 158 3.2 4.8 0.00 0.00 0.00 89 1008.3
20260506034640 24 173 6.4 8.0 0.00 0.00 0.00 89 1008.2
20260506034137 24 152 3.2 3.2 0.00 0.00 0.00 89 1008.1
20260506033635 24 138 3.2 4.8 0.00 0.00 0.00 89 1008.1
20260506033131 24 174 8.0 11.3 0.00 0.00 0.00 89 1007.9
20260506032629 24 167 6.4 8.0 0.00 0.00 0.00 89 1008.1
20260506032126 24 166 8.0 8.0 0.00 0.00 0.00 89 1008.0
20260506031623 24 160 3.2 4.8 0.00 0.00 0.00 89 1007.8
20260506031119 24 165 3.2 4.8 0.00 0.00 0.00 89 1008.0
20260506030618 24 160 3.2 3.2 0.00 0.00 0.00 88 1007.8
20260506030115 24 154 8.0 11.3 0.00 0.00 0.00 89 1007.5
20260506025612 25 134 9.7 14.5 0.00 0.00 0.00 88 1007.4
20260506025107 25 155 8.0 8.0 0.00 0.00 0.00 88 1007.4
20260506024605 25 161 0.0 0.0 0.00 0.00 0.00 88 1007.4
20260506024101 25 149 3.2 4.8 0.00 0.00 0.00 88 1007.4
20260506023557 25 148 0.0 0.0 0.00 0.00 0.00 88 1007.1
20260506023055 25 162 6.4 8.0 0.00 0.00 0.00 87 1007.0
20260506022552 25 161 11.3 14.5 0.00 0.00 0.00 87 1007.0
20260506022050 25 154 4.8 8.0 0.00 0.00 0.00 87 1006.9
20260506021547 25 153 3.2 3.2 0.00 0.00 0.00 87 1007.0
20260506021044 25 157 3.2 4.8 0.00 0.00 0.00 86 1006.8
20260506020542 25 158 3.2 3.2 0.00 0.00 0.00 86 1006.6
20260506020039 25 141 4.8 4.8 0.00 0.00 0.00 86 1006.9
20260506015536 25 162 9.7 14.5 0.00 0.00 0.00 85 1006.8
20260506015033 25 156 3.2 4.8 0.00 0.00 0.00 85 1006.5
20260506014530 25 164 6.4 8.0 0.00 0.00 0.00 86 1006.4
20260506014026 25 137 4.8 4.8 0.00 0.00 0.00 85 1006.6
20260506013525 25 160 4.8 8.0 0.00 0.00 0.00 84 1006.6
20260506013021 25 152 4.8 8.0 0.00 0.00 0.00 84 1006.5
20260506012517 25 155 3.2 4.8 0.00 0.00 0.00 84 1006.2
20260506012014 25 164 3.2 3.2 0.00 0.00 0.00 84 1006.5
20260506011512 26 148 0.0 0.0 0.00 0.00 0.00 84 1006.5
20260506011008 26 146 3.2 3.2 0.00 0.00 0.00 83 1006.4
20260506010507 26 150 0.0 0.0 0.00 0.00 0.00 82 1006.4
20260506010002 26 171 4.8 4.8 0.00 0.00 0.00 81 1006.3
20260506005500 26 151 4.8 4.8 0.00 0.00 0.00 81 1006.3
20260506004955 26 136 6.4 8.0 0.00 0.00 0.00 81 1006.3
20260506004454 26 155 0.0 0.0 0.00 0.00 0.00 80 1006.3
20260506003949 27 163 3.2 4.8 0.00 0.00 0.00 79 1006.4
20260506003446 27 173 3.2 4.8 0.00 0.00 0.00 79 1006.3
20260506002942 27 156 3.2 3.2 0.00 0.00 0.00 79 1006.5
20260506002438 27 165 3.2 3.2 0.00 0.00 0.00 79 1006.5
20260506001934 27 167 0.0 3.2 0.00 0.00 0.00 79 1006.6
20260506001431 27 168 1.6 3.2 0.00 0.00 0.00 79 1006.4
20260506000929 27 174 6.4 8.0 0.00 0.00 0.00 78 1006.3
20260506000426 27 163 1.6 3.2 0.00 0.00 0.00 78 1006.5
20260505235923 27 167 3.2 4.8 0.00 0.00 0.00 78 1006.3
20260505235421 27 165 3.2 4.8 0.00 0.00 0.00 77 1006.4
20260505234917 27 175 3.2 4.8 0.00 0.00 0.00 78 1006.2
20260505234415 27 159 6.4 8.0 0.00 0.00 0.00 77 1006.2
20260505233911 27 159 4.8 4.8 0.00 0.00 0.00 76 1006.2
20260505233409 27 160 3.2 4.8 0.00 0.00 0.00 77 1006.1
20260505232907 27 235 9.7 14.5 0.00 0.00 0.00 76 1006.0
20260505232404 27 192 4.8 4.8 0.00 0.00 0.00 76 1005.9
20260505231901 27 205 9.7 11.3 0.00 0.00 0.00 75 1006.1
20260505231358 28 172 3.2 4.8 0.00 0.00 0.00 76 1005.9
20260505230857 28 158 3.2 4.8 0.00 0.00 0.00 76 1005.8
20260505230354 28 189 6.4 8.0 0.00 0.00 0.00 75 1005.9
20260505225850 28 155 8.0 8.0 0.00 0.00 0.00 76 1005.8
20260505225348 28 186 12.9 19.3 0.00 0.00 0.00 74 1005.8
20260505224842 28 163 4.8 8.0 0.00 0.00 0.00 76 1006.0
20260505224341 28 170 16.1 19.3 0.00 0.00 0.00 74 1005.9
20260505223837 28 107 17.7 22.5 0.00 0.00 0.00 75 1005.8
20260505223334 28 208 1.6 4.8 0.00 0.00 0.00 75 1006.1
20260505222830 28 208 9.7 11.3 0.00 0.00 0.00 74 1005.9
20260505222326 28 186 9.7 11.3 0.00 0.00 0.00 74 1005.8
20260505221824 28 162 6.4 8.0 0.00 0.00 0.00 75 1006.1
20260505221320 27 236 12.9 19.3 0.00 0.00 0.00 74 1006.2
20260505220817 28 173 6.4 8.0 0.00 0.00 0.00 74 1006.0
20260505220314 28 161 6.4 8.0 0.00 0.00 0.00 76 1006.2
20260505215813 28 225 11.3 16.1 0.00 0.00 0.00 73 1006.2
20260505215310 28 196 6.4 8.0 0.00 0.00 0.00 74 1006.0
20260505214808 28 213 9.7 11.3 0.00 0.00 0.00 74 1006.2
20260505214305 27 160 6.4 11.3 0.00 0.00 0.00 75 1006.3
20260505213802 27 172 8.0 11.3 0.00 0.00 0.00 75 1006.4
20260505213300 28 175 9.7 11.3 0.00 0.00 0.00 73 1006.3
20260505212755 28 224 9.7 14.5 0.00 0.00 0.00 74 1006.5
20260505212253 28 166 9.7 11.3 0.00 0.00 0.00 74 1006.4